Year,Month,Day,Hour,Minute,Value (Times are PST for temperature in C)
2015,04,20,00,00,10.20
2015,04,20,00,01,10.20
2015,04,20,00,02,10.20
2015,04,20,00,03,10.10
2015,04,20,00,04,10.10
2015,04,20,00,05,10.10
2015,04,20,00,06,10.10
2015,04,20,00,07,10.10
2015,04,20,00,08,10.10
2015,04,20,00,09,10.10
2015,04,20,00,10,10.10
2015,04,20,00,11,10.10
2015,04,20,00,12,10.10
2015,04,20,00,13,10.10
2015,04,20,00,14,10.10
2015,04,20,00,15,10.10
2015,04,20,00,16,10.10
2015,04,20,00,17,10.10
2015,04,20,00,18,10.10
2015,04,20,00,19,10.10
2015,04,20,00,20,10.10
2015,04,20,00,21,10.10
2015,04,20,00,22,10.20
2015,04,20,00,23,10.20
2015,04,20,00,24,10.20
2015,04,20,00,25,10.20
2015,04,20,00,26,10.10
2015,04,20,00,27,10.10
2015,04,20,00,28,10.10
2015,04,20,00,29,10.10
2015,04,20,00,30,10.10
2015,04,20,00,31,10.10
2015,04,20,00,32,10.10
2015,04,20,00,33,10.10
2015,04,20,00,34,10.10
2015,04,20,00,35,10.10
2015,04,20,00,36,10.10
2015,04,20,00,37,10.10
2015,04,20,00,38,10.10
2015,04,20,00,39,10.10
2015,04,20,00,40,10.10
2015,04,20,00,41,10.10
2015,04,20,00,42,10.10
2015,04,20,00,43,10.10
2015,04,20,00,44,10.10
2015,04,20,00,45,10.10
2015,04,20,00,46,10.10
2015,04,20,00,47,10.00
2015,04,20,00,48,10.00
2015,04,20,00,49,10.00
2015,04,20,00,50,9.90
2015,04,20,00,51,9.90
2015,04,20,00,52,9.90
2015,04,20,00,53,9.90
2015,04,20,00,54,9.90
2015,04,20,00,55,9.90
2015,04,20,00,56,9.90
2015,04,20,00,57,9.90
2015,04,20,00,58,9.90
2015,04,20,00,59,9.80
2015,04,20,01,00,9.80
2015,04,20,01,01,9.80
2015,04,20,01,02,9.80
2015,04,20,01,03,9.80
2015,04,20,01,04,9.80
2015,04,20,01,05,9.70
2015,04,20,01,06,9.70
2015,04,20,01,07,9.70
2015,04,20,01,08,9.70
2015,04,20,01,09,9.70
2015,04,20,01,10,9.70
2015,04,20,01,11,9.60
2015,04,20,01,12,9.60
2015,04,20,01,13,9.60
2015,04,20,01,14,9.60
2015,04,20,01,15,9.60
2015,04,20,01,16,9.60
2015,04,20,01,17,9.60
2015,04,20,01,18,9.60
2015,04,20,01,19,9.50
2015,04,20,01,20,9.50
2015,04,20,01,21,9.50
2015,04,20,01,22,9.50
2015,04,20,01,23,9.50
2015,04,20,01,24,9.40
2015,04,20,01,25,9.40
2015,04,20,01,26,9.40
2015,04,20,01,27,9.40
2015,04,20,01,28,9.40
2015,04,20,01,29,9.40
2015,04,20,01,30,9.40
2015,04,20,01,31,9.40
2015,04,20,01,32,9.40
2015,04,20,01,33,9.40
2015,04,20,01,34,9.40
2015,04,20,01,35,9.40
2015,04,20,01,36,9.40
2015,04,20,01,37,9.40
2015,04,20,01,38,9.40
2015,04,20,01,39,9.30
2015,04,20,01,40,9.30
2015,04,20,01,41,9.30
2015,04,20,01,42,9.30
2015,04,20,01,43,9.30
2015,04,20,01,44,9.30
2015,04,20,01,45,9.20
2015,04,20,01,46,9.20
2015,04,20,01,47,9.20
2015,04,20,01,48,9.20
2015,04,20,01,49,9.20
2015,04,20,01,50,9.20
2015,04,20,01,51,9.20
2015,04,20,01,52,9.20
2015,04,20,01,53,9.20
2015,04,20,01,54,9.20
2015,04,20,01,55,9.10
2015,04,20,01,56,9.10
2015,04,20,01,57,9.10
2015,04,20,01,58,9.10
2015,04,20,01,59,9.10
2015,04,20,02,00,9.10
2015,04,20,02,01,9.10
2015,04,20,02,02,9.00
2015,04,20,02,03,9.00
2015,04,20,02,04,9.00
2015,04,20,02,05,9.00
2015,04,20,02,06,9.00
2015,04,20,02,07,8.90
2015,04,20,02,08,8.90
2015,04,20,02,09,8.90
2015,04,20,02,10,8.90
2015,04,20,02,11,8.80
2015,04,20,02,12,8.80
2015,04,20,02,13,8.80
2015,04,20,02,14,8.80
2015,04,20,02,15,8.70
2015,04,20,02,16,8.70
2015,04,20,02,17,8.70
2015,04,20,02,18,8.70
2015,04,20,02,19,8.70
2015,04,20,02,20,8.60
2015,04,20,02,21,8.60
2015,04,20,02,22,8.60
2015,04,20,02,23,8.50
2015,04,20,02,24,8.50
2015,04,20,02,25,8.50
2015,04,20,02,26,8.50
2015,04,20,02,27,8.50
2015,04,20,02,28,8.40
2015,04,20,02,29,8.40
2015,04,20,02,30,8.40
2015,04,20,02,31,8.40
2015,04,20,02,32,8.40
2015,04,20,02,33,8.40
2015,04,20,02,34,8.40
2015,04,20,02,35,8.40
2015,04,20,02,36,8.40
2015,04,20,02,37,8.30
2015,04,20,02,38,8.30
2015,04,20,02,39,8.30
2015,04,20,02,40,8.40
2015,04,20,02,41,8.40
2015,04,20,02,42,8.40
2015,04,20,02,43,8.40
2015,04,20,02,44,8.40
2015,04,20,02,45,8.40
2015,04,20,02,46,8.40
2015,04,20,02,47,8.40
2015,04,20,02,48,8.40
2015,04,20,02,49,8.40
2015,04,20,02,50,8.40
2015,04,20,02,51,8.40
2015,04,20,02,52,8.40
2015,04,20,02,53,8.40
2015,04,20,02,54,8.40
2015,04,20,02,55,8.40
2015,04,20,02,56,8.40
2015,04,20,02,57,8.40
2015,04,20,02,58,8.40
2015,04,20,02,59,8.40
2015,04,20,03,00,8.40
2015,04,20,03,01,8.40
2015,04,20,03,02,8.40
2015,04,20,03,03,8.40
2015,04,20,03,04,8.40
2015,04,20,03,05,8.50
2015,04,20,03,06,8.50
2015,04,20,03,07,8.50
2015,04,20,03,08,8.50
2015,04,20,03,09,8.50
2015,04,20,03,10,8.50
2015,04,20,03,11,8.50
2015,04,20,03,12,8.50
2015,04,20,03,13,8.50
2015,04,20,03,14,8.50
2015,04,20,03,15,8.50
2015,04,20,03,16,8.40
2015,04,20,03,17,8.40
2015,04,20,03,18,8.40
2015,04,20,03,19,8.40
2015,04,20,03,20,8.30
2015,04,20,03,21,8.30
2015,04,20,03,22,8.30
2015,04,20,03,23,8.30
2015,04,20,03,24,8.30
2015,04,20,03,25,8.30
2015,04,20,03,26,8.20
2015,04,20,03,27,8.20
2015,04,20,03,28,8.20
2015,04,20,03,29,8.20
2015,04,20,03,30,8.20
2015,04,20,03,31,8.10
2015,04,20,03,32,8.10
2015,04,20,03,33,8.10
2015,04,20,03,34,8.10
2015,04,20,03,35,8.00
2015,04,20,03,36,8.00
2015,04,20,03,37,8.00
2015,04,20,03,38,7.90
2015,04,20,03,39,7.90
2015,04,20,03,40,7.90
2015,04,20,03,41,7.80
2015,04,20,03,42,7.80
2015,04,20,03,43,7.80
2015,04,20,03,44,7.80
2015,04,20,03,45,7.80
2015,04,20,03,46,7.80
2015,04,20,03,47,7.80
2015,04,20,03,48,7.70
2015,04,20,03,49,7.70
2015,04,20,03,50,7.70
2015,04,20,03,51,7.70
2015,04,20,03,52,7.60
2015,04,20,03,53,7.60
2015,04,20,03,54,7.60
2015,04,20,03,55,7.60
2015,04,20,03,56,7.50
2015,04,20,03,57,7.50
2015,04,20,03,58,7.50
2015,04,20,03,59,7.50
2015,04,20,04,00,7.40
2015,04,20,04,01,7.40
2015,04,20,04,02,7.40
2015,04,20,04,03,7.40
2015,04,20,04,04,7.40
2015,04,20,04,05,7.40
2015,04,20,04,06,7.40
2015,04,20,04,07,7.40
2015,04,20,04,08,7.40
2015,04,20,04,09,7.30
2015,04,20,04,10,7.30
2015,04,20,04,11,7.30
2015,04,20,04,12,7.30
2015,04,20,04,13,7.30
2015,04,20,04,14,7.30
2015,04,20,04,15,7.20
2015,04,20,04,16,7.20
2015,04,20,04,17,7.20
2015,04,20,04,18,7.20
2015,04,20,04,19,7.20
2015,04,20,04,20,7.10
2015,04,20,04,21,7.10
2015,04,20,04,22,7.10
2015,04,20,04,23,7.10
2015,04,20,04,24,7.10
2015,04,20,04,25,7.10
2015,04,20,04,26,7.00
2015,04,20,04,27,7.00
2015,04,20,04,28,7.00
2015,04,20,04,29,7.00
2015,04,20,04,30,7.00
2015,04,20,04,31,7.00
2015,04,20,04,32,7.00
2015,04,20,04,33,7.00
2015,04,20,04,34,7.00
2015,04,20,04,35,7.00
2015,04,20,04,36,7.00
2015,04,20,04,37,7.00
2015,04,20,04,38,7.00
2015,04,20,04,39,7.00
2015,04,20,04,40,7.00
2015,04,20,04,41,6.90
2015,04,20,04,42,6.90
2015,04,20,04,43,6.90
2015,04,20,04,44,6.90
2015,04,20,04,45,6.90
2015,04,20,04,46,6.90
2015,04,20,04,47,6.90
2015,04,20,04,48,6.90
2015,04,20,04,49,6.80
2015,04,20,04,50,6.80
2015,04,20,04,51,6.80
2015,04,20,04,52,6.80
2015,04,20,04,53,6.80
2015,04,20,04,54,6.80
2015,04,20,04,55,6.80
2015,04,20,04,56,6.80
2015,04,20,04,57,6.70
2015,04,20,04,58,6.70
2015,04,20,04,59,6.70
2015,04,20,05,00,6.70
2015,04,20,05,01,6.70
2015,04,20,05,02,6.70
2015,04,20,05,03,6.70
2015,04,20,05,04,6.70
2015,04,20,05,05,6.60
2015,04,20,05,06,6.60
2015,04,20,05,07,6.60
2015,04,20,05,08,6.60
2015,04,20,05,09,6.60
2015,04,20,05,10,6.60
2015,04,20,05,11,6.60
2015,04,20,05,12,6.60
2015,04,20,05,13,6.60
2015,04,20,05,14,6.60
2015,04,20,05,15,6.60
2015,04,20,05,16,6.60
2015,04,20,05,17,6.60
2015,04,20,05,18,6.60
2015,04,20,05,19,6.60
2015,04,20,05,20,6.60
2015,04,20,05,21,6.60
2015,04,20,05,22,6.60
2015,04,20,05,23,6.60
2015,04,20,05,24,6.60
2015,04,20,05,25,6.60
2015,04,20,05,26,6.60
2015,04,20,05,27,6.60
2015,04,20,05,28,6.60
2015,04,20,05,29,6.50
2015,04,20,05,30,6.50
2015,04,20,05,31,6.50
2015,04,20,05,32,6.50
2015,04,20,05,33,6.50
2015,04,20,05,34,6.50
2015,04,20,05,35,6.50
2015,04,20,05,36,6.50
2015,04,20,05,37,6.50
2015,04,20,05,38,6.50
2015,04,20,05,39,6.50
2015,04,20,05,40,6.50
2015,04,20,05,41,6.50
2015,04,20,05,42,6.40
2015,04,20,05,43,6.40
2015,04,20,05,44,6.40
2015,04,20,05,45,6.40
2015,04,20,05,46,6.40
2015,04,20,05,47,6.40
2015,04,20,05,48,6.40
2015,04,20,05,49,6.40
2015,04,20,05,50,6.40
2015,04,20,05,51,6.40
2015,04,20,05,52,6.40
2015,04,20,05,53,6.40
2015,04,20,05,54,6.30
2015,04,20,05,55,6.30
2015,04,20,05,56,6.30
2015,04,20,05,57,6.30
2015,04,20,05,58,6.30
2015,04,20,05,59,6.30
2015,04,20,06,00,6.30
2015,04,20,06,01,6.30
2015,04,20,06,02,6.30
2015,04,20,06,03,6.30
2015,04,20,06,04,6.20
2015,04,20,06,05,6.20
2015,04,20,06,06,6.20
2015,04,20,06,07,6.20
2015,04,20,06,08,6.20
2015,04,20,06,09,6.20
2015,04,20,06,10,6.20
2015,04,20,06,11,6.20
2015,04,20,06,12,6.20
2015,04,20,06,13,6.20
2015,04,20,06,14,6.20
2015,04,20,06,15,6.20
2015,04,20,06,16,6.10
2015,04,20,06,17,6.10
2015,04,20,06,18,6.10
2015,04,20,06,19,6.10
2015,04,20,06,20,6.10
2015,04,20,06,21,6.10
2015,04,20,06,22,6.10
2015,04,20,06,23,6.10
2015,04,20,06,24,6.10
2015,04,20,06,25,6.10
2015,04,20,06,26,6.10
2015,04,20,06,27,6.10
2015,04,20,06,28,6.10
2015,04,20,06,29,6.10
2015,04,20,06,30,6.10
2015,04,20,06,31,6.10
2015,04,20,06,32,6.10
2015,04,20,06,33,6.10
2015,04,20,06,34,6.20
2015,04,20,06,35,6.20
2015,04,20,06,36,6.20
2015,04,20,06,37,6.20
2015,04,20,06,38,6.20
2015,04,20,06,39,6.20
2015,04,20,06,40,6.20
2015,04,20,06,41,6.20
2015,04,20,06,42,6.20
2015,04,20,06,43,6.10
2015,04,20,06,44,6.10
2015,04,20,06,45,6.10
2015,04,20,06,46,6.10
2015,04,20,06,47,6.10
2015,04,20,06,48,6.20
2015,04,20,06,49,6.20
2015,04,20,06,50,6.20
2015,04,20,06,51,6.20
2015,04,20,06,52,6.20
2015,04,20,06,53,6.20
2015,04,20,06,54,6.20
2015,04,20,06,55,6.20
2015,04,20,06,56,6.20
2015,04,20,06,57,6.20
2015,04,20,06,58,6.20
2015,04,20,06,59,6.20
2015,04,20,07,00,6.20
2015,04,20,07,01,6.20
2015,04,20,07,02,6.20
2015,04,20,07,03,6.20
2015,04,20,07,04,6.20
2015,04,20,07,05,6.20
2015,04,20,07,06,6.20
2015,04,20,07,07,6.30
2015,04,20,07,08,6.30
2015,04,20,07,09,6.30
2015,04,20,07,10,6.40
2015,04,20,07,11,6.40
2015,04,20,07,12,6.40
2015,04,20,07,13,6.40
2015,04,20,07,14,6.40
2015,04,20,07,15,6.40
2015,04,20,07,16,6.40
2015,04,20,07,17,6.50
2015,04,20,07,18,6.50
2015,04,20,07,19,6.50
2015,04,20,07,20,6.50
2015,04,20,07,21,6.60
2015,04,20,07,22,6.60
2015,04,20,07,23,6.60
2015,04,20,07,24,6.60
2015,04,20,07,25,6.70
2015,04,20,07,26,6.80
2015,04,20,07,27,6.80
2015,04,20,07,28,6.80
2015,04,20,07,29,6.90
2015,04,20,07,30,6.90
2015,04,20,07,31,7.00
2015,04,20,07,32,7.00
2015,04,20,07,33,7.10
2015,04,20,07,34,7.20
2015,04,20,07,35,7.20
2015,04,20,07,36,7.20
2015,04,20,07,37,7.20
2015,04,20,07,38,7.30
2015,04,20,07,39,7.30
2015,04,20,07,40,7.30
2015,04,20,07,41,7.30
2015,04,20,07,42,7.40
2015,04,20,07,43,7.40
2015,04,20,07,44,7.40
2015,04,20,07,45,7.40
2015,04,20,07,46,7.50
2015,04,20,07,47,7.50
2015,04,20,07,48,7.60
2015,04,20,07,49,7.60
2015,04,20,07,50,7.70
2015,04,20,07,51,7.70
2015,04,20,07,52,7.70
2015,04,20,07,53,7.80
2015,04,20,07,54,7.80
2015,04,20,07,55,7.90
2015,04,20,07,56,8.00
2015,04,20,07,57,8.10
2015,04,20,07,58,8.20
2015,04,20,07,59,8.20
2015,04,20,08,00,8.30
2015,04,20,08,01,8.40
2015,04,20,08,02,8.50
2015,04,20,08,03,8.50
2015,04,20,08,04,8.60
2015,04,20,08,05,8.70
2015,04,20,08,06,8.80
2015,04,20,08,07,8.90
2015,04,20,08,08,9.00
2015,04,20,08,09,9.10
2015,04,20,08,10,9.20
2015,04,20,08,11,9.30
2015,04,20,08,12,9.40
2015,04,20,08,13,9.50
2015,04,20,08,14,9.60
2015,04,20,08,15,9.70
2015,04,20,08,16,9.80
2015,04,20,08,17,10.00
2015,04,20,08,18,10.10
2015,04,20,08,19,10.20
2015,04,20,08,20,10.30
2015,04,20,08,21,10.40
2015,04,20,08,22,10.50
2015,04,20,08,23,10.60
2015,04,20,08,24,10.70
2015,04,20,08,25,10.80
2015,04,20,08,26,11.00
2015,04,20,08,27,11.10
2015,04,20,08,28,11.20
2015,04,20,08,29,11.30
2015,04,20,08,30,11.40
2015,04,20,08,31,11.60
2015,04,20,08,32,11.70
2015,04,20,08,33,11.90
2015,04,20,08,34,12.00
2015,04,20,08,35,12.10
2015,04,20,08,36,12.20
2015,04,20,08,37,12.30
2015,04,20,08,38,12.40
2015,04,20,08,39,12.40
2015,04,20,08,40,12.50
2015,04,20,08,41,12.50
2015,04,20,08,42,12.50
2015,04,20,08,43,12.60
2015,04,20,08,44,12.60
2015,04,20,08,45,12.60
2015,04,20,08,46,12.70
2015,04,20,08,47,12.70
2015,04,20,08,48,12.70
2015,04,20,08,49,12.80
2015,04,20,08,50,12.80
2015,04,20,08,51,12.90
2015,04,20,08,52,12.90
2015,04,20,08,53,13.00
2015,04,20,08,54,13.00
2015,04,20,08,55,13.10
2015,04,20,08,56,13.10
2015,04,20,08,57,13.20
2015,04,20,08,58,13.20
2015,04,20,08,59,13.30
2015,04,20,09,00,13.30
2015,04,20,09,01,13.40
2015,04,20,09,02,13.40
2015,04,20,09,03,13.50
2015,04,20,09,04,13.60
2015,04,20,09,05,13.70
2015,04,20,09,06,13.70
2015,04,20,09,07,13.70
2015,04,20,09,08,13.80
2015,04,20,09,09,13.80
2015,04,20,09,10,13.80
2015,04,20,09,11,13.90
2015,04,20,09,12,13.90
2015,04,20,09,13,13.90
2015,04,20,09,14,14.00
2015,04,20,09,15,14.00
2015,04,20,09,16,14.00
2015,04,20,09,17,14.10
2015,04,20,09,18,14.10
2015,04,20,09,19,14.10
2015,04,20,09,20,14.20
2015,04,20,09,21,14.20
2015,04,20,09,22,14.30
2015,04,20,09,23,14.30
2015,04,20,09,24,14.40
2015,04,20,09,25,14.40
2015,04,20,09,26,14.50
2015,04,20,09,27,14.60
2015,04,20,09,28,14.60
2015,04,20,09,29,14.60
2015,04,20,09,30,14.70
2015,04,20,09,31,14.70
2015,04,20,09,32,14.70
2015,04,20,09,33,14.70
2015,04,20,09,34,14.80
2015,04,20,09,35,14.80
2015,04,20,09,36,14.80
2015,04,20,09,37,14.80
2015,04,20,09,38,14.90
2015,04,20,09,39,14.90
2015,04,20,09,40,15.00
2015,04,20,09,41,15.00
2015,04,20,09,42,15.00
2015,04,20,09,43,15.00
2015,04,20,09,44,15.00
2015,04,20,09,45,14.90
2015,04,20,09,46,14.90
2015,04,20,09,47,14.80
2015,04,20,09,48,14.80
2015,04,20,09,49,14.70
2015,04,20,09,50,14.70
2015,04,20,09,51,14.70
2015,04,20,09,52,14.70
2015,04,20,09,53,14.70
2015,04,20,09,54,14.70
2015,04,20,09,55,14.70
2015,04,20,09,56,14.80
2015,04,20,09,57,14.80
2015,04,20,09,58,14.80
2015,04,20,09,59,14.90
2015,04,20,10,00,14.90
2015,04,20,10,01,15.00
2015,04,20,10,02,15.00
2015,04,20,10,03,15.10
2015,04,20,10,04,15.10
2015,04,20,10,05,15.20
2015,04,20,10,06,15.20
2015,04,20,10,07,15.20
2015,04,20,10,08,15.30
2015,04,20,10,09,15.30
2015,04,20,10,10,15.30
2015,04,20,10,11,15.30
2015,04,20,10,12,15.40
2015,04,20,10,13,15.50
2015,04,20,10,14,15.50
2015,04,20,10,15,15.60
2015,04,20,10,16,15.70
2015,04,20,10,17,15.80
2015,04,20,10,18,15.90
2015,04,20,10,19,16.00
2015,04,20,10,20,16.10
2015,04,20,10,21,16.10
2015,04,20,10,22,16.20
2015,04,20,10,23,16.20
2015,04,20,10,24,16.30
2015,04,20,10,25,16.30
2015,04,20,10,26,16.30
2015,04,20,10,27,16.40
2015,04,20,10,28,16.50
2015,04,20,10,29,16.60
2015,04,20,10,30,16.60
2015,04,20,10,31,16.70
2015,04,20,10,32,16.80
2015,04,20,10,33,16.80
2015,04,20,10,34,16.80
2015,04,20,10,35,16.90
2015,04,20,10,36,16.90
2015,04,20,10,37,16.90
2015,04,20,10,38,16.90
2015,04,20,10,39,16.90
2015,04,20,10,40,16.90
2015,04,20,10,41,16.80
2015,04,20,10,42,16.70
2015,04,20,10,43,16.50
2015,04,20,10,44,16.30
2015,04,20,10,45,16.00
2015,04,20,10,46,15.90
2015,04,20,10,47,15.80
2015,04,20,10,48,15.80
2015,04,20,10,49,15.70
2015,04,20,10,50,15.60
2015,04,20,10,51,15.60
2015,04,20,10,52,15.60
2015,04,20,10,53,15.50
2015,04,20,10,54,15.40
2015,04,20,10,55,15.40
2015,04,20,10,56,15.30
2015,04,20,10,57,15.30
2015,04,20,10,58,15.20
2015,04,20,10,59,15.20
2015,04,20,11,00,15.20
2015,04,20,11,01,15.30
2015,04,20,11,02,15.30
2015,04,20,11,03,15.20
2015,04,20,11,04,15.20
2015,04,20,11,05,15.10
2015,04,20,11,06,15.10
2015,04,20,11,07,15.10
2015,04,20,11,08,15.10
2015,04,20,11,09,15.10
2015,04,20,11,10,15.10
2015,04,20,11,11,15.20
2015,04,20,11,12,15.30
2015,04,20,11,13,15.30
2015,04,20,11,14,15.40
2015,04,20,11,15,15.40
2015,04,20,11,16,15.40
2015,04,20,11,17,15.40
2015,04,20,11,18,15.40
2015,04,20,11,19,15.40
2015,04,20,11,20,15.40
2015,04,20,11,21,15.50
2015,04,20,11,22,15.60
2015,04,20,11,23,15.70
2015,04,20,11,24,15.80
2015,04,20,11,25,15.80
2015,04,20,11,26,15.80
2015,04,20,11,27,15.80
2015,04,20,11,28,15.80
2015,04,20,11,29,15.80
2015,04,20,11,30,15.80
2015,04,20,11,31,15.80
2015,04,20,11,32,15.80
2015,04,20,11,33,15.80
2015,04,20,11,34,15.80
2015,04,20,11,35,15.70
2015,04,20,11,36,15.70
2015,04,20,11,37,15.70
2015,04,20,11,38,15.70
2015,04,20,11,39,15.70
2015,04,20,11,40,15.60
2015,04,20,11,41,15.50
2015,04,20,11,42,15.40
2015,04,20,11,43,15.40
2015,04,20,11,44,15.40
2015,04,20,11,45,15.40
2015,04,20,11,46,15.50
2015,04,20,11,47,15.50
2015,04,20,11,48,15.50
2015,04,20,11,49,15.50
2015,04,20,11,50,15.50
2015,04,20,11,51,15.60
2015,04,20,11,52,15.60
2015,04,20,11,53,15.60
2015,04,20,11,54,15.60
2015,04,20,11,55,15.70
2015,04,20,11,56,15.70
2015,04,20,11,57,15.70
2015,04,20,11,58,15.70
2015,04,20,11,59,15.80
2015,04,20,12,00,15.80
2015,04,20,12,01,15.90
2015,04,20,12,02,15.90
2015,04,20,12,03,15.90
2015,04,20,12,04,15.90
2015,04,20,12,05,15.80
2015,04,20,12,06,15.80
2015,04,20,12,07,15.70
2015,04,20,12,08,15.60
2015,04,20,12,09,15.50
2015,04,20,12,10,15.40
2015,04,20,12,11,15.50
2015,04,20,12,12,15.50
2015,04,20,12,13,15.60
2015,04,20,12,14,15.60
2015,04,20,12,15,15.60
2015,04,20,12,16,15.70
2015,04,20,12,17,15.70
2015,04,20,12,18,15.70
2015,04,20,12,19,15.70
2015,04,20,12,20,15.70
2015,04,20,12,21,15.70
2015,04,20,12,22,15.80
2015,04,20,12,23,15.80
2015,04,20,12,24,15.90
2015,04,20,12,25,16.00
2015,04,20,12,26,16.00
2015,04,20,12,27,16.10
2015,04,20,12,28,16.10
2015,04,20,12,29,16.20
2015,04,20,12,30,16.30
2015,04,20,12,31,16.30
2015,04,20,12,32,16.30
2015,04,20,12,33,16.30
2015,04,20,12,34,16.30
2015,04,20,12,35,16.30
2015,04,20,12,36,16.30
2015,04,20,12,37,16.20
2015,04,20,12,38,16.20
2015,04,20,12,39,16.20
2015,04,20,12,40,16.10
2015,04,20,12,41,16.10
2015,04,20,12,42,16.10
2015,04,20,12,43,16.10
2015,04,20,12,44,16.00
2015,04,20,12,45,16.00
2015,04,20,12,46,15.90
2015,04,20,12,47,15.80
2015,04,20,12,48,15.70
2015,04,20,12,49,15.60
2015,04,20,12,50,15.60
2015,04,20,12,51,15.60
2015,04,20,12,52,15.60
2015,04,20,12,53,15.60
2015,04,20,12,54,15.60
2015,04,20,12,55,15.70
2015,04,20,12,56,15.70
2015,04,20,12,57,15.70
2015,04,20,12,58,15.80
2015,04,20,12,59,15.90
2015,04,20,13,00,15.90
2015,04,20,13,01,16.00
2015,04,20,13,02,16.10
2015,04,20,13,03,16.20
2015,04,20,13,04,16.30
2015,04,20,13,05,16.40
2015,04,20,13,06,16.50
2015,04,20,13,07,16.50
2015,04,20,13,08,16.60
2015,04,20,13,09,16.60
2015,04,20,13,10,16.70
2015,04,20,13,11,16.70
2015,04,20,13,12,16.80
2015,04,20,13,13,16.80
2015,04,20,13,14,16.90
2015,04,20,13,15,16.90
2015,04,20,13,16,16.90
2015,04,20,13,17,16.90
2015,04,20,13,18,16.90
2015,04,20,13,19,16.80
2015,04,20,13,20,16.80
2015,04,20,13,21,16.80
2015,04,20,13,22,16.80
2015,04,20,13,23,16.80
2015,04,20,13,24,16.80
2015,04,20,13,25,16.80
2015,04,20,13,26,16.80
2015,04,20,13,27,16.80
2015,04,20,13,28,16.80
2015,04,20,13,29,16.80
2015,04,20,13,30,16.80
2015,04,20,13,31,16.80
2015,04,20,13,32,16.70
2015,04,20,13,33,16.60
2015,04,20,13,34,16.50
2015,04,20,13,35,16.50
2015,04,20,13,36,16.40
2015,04,20,13,37,16.50
2015,04,20,13,38,16.60
2015,04,20,13,39,16.70
2015,04,20,13,40,16.70
2015,04,20,13,41,16.80
2015,04,20,13,42,16.80
2015,04,20,13,43,16.80
2015,04,20,13,44,16.80
2015,04,20,13,45,16.90
2015,04,20,13,46,16.90
2015,04,20,13,47,16.90
2015,04,20,13,48,16.90
2015,04,20,13,49,16.90
2015,04,20,13,50,16.90
2015,04,20,13,51,16.90
2015,04,20,13,52,17.00
2015,04,20,13,53,17.00
2015,04,20,13,54,17.10
2015,04,20,13,55,17.20
2015,04,20,13,56,17.20
2015,04,20,13,57,17.20
2015,04,20,13,58,17.20
2015,04,20,13,59,17.20
2015,04,20,14,00,17.20
2015,04,20,14,01,17.20
2015,04,20,14,02,17.10
2015,04,20,14,03,17.10
2015,04,20,14,04,17.10
2015,04,20,14,05,17.10
2015,04,20,14,06,17.10
2015,04,20,14,07,17.20
2015,04,20,14,08,17.20
2015,04,20,14,09,17.20
2015,04,20,14,10,17.30
2015,04,20,14,11,17.30
2015,04,20,14,12,17.30
2015,04,20,14,13,17.30
2015,04,20,14,14,17.30
2015,04,20,14,15,17.30
2015,04,20,14,16,17.40
2015,04,20,14,17,17.40
2015,04,20,14,18,17.40
2015,04,20,14,19,17.40
2015,04,20,14,20,17.50
2015,04,20,14,21,17.50
2015,04,20,14,22,17.60
2015,04,20,14,23,17.70
2015,04,20,14,24,17.80
2015,04,20,14,25,17.80
2015,04,20,14,26,17.80
2015,04,20,14,27,17.90
2015,04,20,14,28,17.80
2015,04,20,14,29,17.80
2015,04,20,14,30,17.80
2015,04,20,14,31,17.80
2015,04,20,14,32,17.90
2015,04,20,14,33,18.00
2015,04,20,14,34,18.00
2015,04,20,14,35,18.10
2015,04,20,14,36,18.20
2015,04,20,14,37,18.20
2015,04,20,14,38,18.30
2015,04,20,14,39,18.30
2015,04,20,14,40,18.40
2015,04,20,14,41,18.40
2015,04,20,14,42,18.40
2015,04,20,14,43,18.30
2015,04,20,14,44,18.30
2015,04,20,14,45,18.30
2015,04,20,14,46,18.30
2015,04,20,14,47,18.30
2015,04,20,14,48,18.30
2015,04,20,14,49,18.20
2015,04,20,14,50,18.10
2015,04,20,14,51,18.10
2015,04,20,14,52,18.00
2015,04,20,14,53,18.00
2015,04,20,14,54,17.90
2015,04,20,14,55,17.80
2015,04,20,14,56,17.70
2015,04,20,14,57,17.60
2015,04,20,14,58,17.60
2015,04,20,14,59,17.60
2015,04,20,15,00,17.60
2015,04,20,15,01,17.70
2015,04,20,15,02,17.70
2015,04,20,15,03,17.80
2015,04,20,15,04,17.80
2015,04,20,15,05,17.90
2015,04,20,15,06,17.90
2015,04,20,15,07,17.90
2015,04,20,15,08,17.90
2015,04,20,15,09,17.90
2015,04,20,15,10,17.90
2015,04,20,15,11,17.90
2015,04,20,15,12,17.90
2015,04,20,15,13,18.00
2015,04,20,15,14,18.00
2015,04,20,15,15,18.10
2015,04,20,15,16,18.10
2015,04,20,15,17,18.20
2015,04,20,15,18,18.20
2015,04,20,15,19,18.20
2015,04,20,15,20,18.20
2015,04,20,15,21,18.20
2015,04,20,15,22,18.20
2015,04,20,15,23,18.20
2015,04,20,15,24,18.20
2015,04,20,15,25,18.10
2015,04,20,15,26,18.10
2015,04,20,15,27,18.10
2015,04,20,15,28,18.10
2015,04,20,15,29,18.10
2015,04,20,15,30,18.10
2015,04,20,15,31,18.00
2015,04,20,15,32,18.10
2015,04,20,15,33,18.10
2015,04,20,15,34,18.10
2015,04,20,15,35,18.10
2015,04,20,15,36,18.10
2015,04,20,15,37,18.10
2015,04,20,15,38,18.10
2015,04,20,15,39,18.10
2015,04,20,15,40,18.00
2015,04,20,15,41,17.90
2015,04,20,15,42,17.90
2015,04,20,15,43,17.80
2015,04,20,15,44,17.80
2015,04,20,15,45,17.80
2015,04,20,15,46,17.80
2015,04,20,15,47,17.80
2015,04,20,15,48,17.80
2015,04,20,15,49,17.80
2015,04,20,15,50,17.80
2015,04,20,15,51,17.80
2015,04,20,15,52,17.90
2015,04,20,15,53,18.00
2015,04,20,15,54,18.10
2015,04,20,15,55,18.10
2015,04,20,15,56,18.10
2015,04,20,15,57,18.10
2015,04,20,15,58,18.10
2015,04,20,15,59,18.10
2015,04,20,16,00,18.10
2015,04,20,16,01,18.10
2015,04,20,16,02,18.10
2015,04,20,16,03,18.10
2015,04,20,16,04,18.20
2015,04,20,16,05,18.20
2015,04,20,16,06,18.20
2015,04,20,16,07,18.20
2015,04,20,16,08,18.10
2015,04,20,16,09,18.00
2015,04,20,16,10,17.90
2015,04,20,16,11,17.90
2015,04,20,16,12,17.80
2015,04,20,16,13,17.80
2015,04,20,16,14,17.90
2015,04,20,16,15,17.90
2015,04,20,16,16,17.90
2015,04,20,16,17,18.00
2015,04,20,16,18,18.00
2015,04,20,16,19,18.00
2015,04,20,16,20,18.10
2015,04,20,16,21,18.10
2015,04,20,16,22,18.20
2015,04,20,16,23,18.20
2015,04,20,16,24,18.30
2015,04,20,16,25,18.40
2015,04,20,16,26,18.40
2015,04,20,16,27,18.40
2015,04,20,16,28,18.40
2015,04,20,16,29,18.40
2015,04,20,16,30,18.40
2015,04,20,16,31,18.40
2015,04,20,16,32,18.40
2015,04,20,16,33,18.40
2015,04,20,16,34,18.30
2015,04,20,16,35,18.30
2015,04,20,16,36,18.20
2015,04,20,16,37,18.20
2015,04,20,16,38,18.20
2015,04,20,16,39,18.10
2015,04,20,16,40,18.10
2015,04,20,16,41,18.10
2015,04,20,16,42,18.00
2015,04,20,16,43,18.00
2015,04,20,16,44,18.10
2015,04,20,16,45,18.10
2015,04,20,16,46,18.10
2015,04,20,16,47,18.00
2015,04,20,16,48,18.00
2015,04,20,16,49,17.90
2015,04,20,16,50,17.90
2015,04,20,16,51,17.80
2015,04,20,16,52,17.80
2015,04,20,16,53,17.80
2015,04,20,16,54,17.70
2015,04,20,16,55,17.70
2015,04,20,16,56,17.70
2015,04,20,16,57,17.70
2015,04,20,16,58,17.70
2015,04,20,16,59,17.60
2015,04,20,17,00,17.60
2015,04,20,17,01,17.60
2015,04,20,17,02,17.60
2015,04,20,17,03,17.60
2015,04,20,17,04,17.70
2015,04,20,17,05,17.70
2015,04,20,17,06,17.70
2015,04,20,17,07,17.80
2015,04,20,17,08,17.80
2015,04,20,17,09,17.90
2015,04,20,17,10,17.90
2015,04,20,17,11,17.90
2015,04,20,17,12,17.90
2015,04,20,17,13,17.90
2015,04,20,17,14,17.80
2015,04,20,17,15,17.80
2015,04,20,17,16,17.80
2015,04,20,17,17,17.80
2015,04,20,17,18,17.90
2015,04,20,17,19,17.90
2015,04,20,17,20,17.90
2015,04,20,17,21,17.80
2015,04,20,17,22,17.80
2015,04,20,17,23,17.80
2015,04,20,17,24,17.80
2015,04,20,17,25,17.80
2015,04,20,17,26,17.90
2015,04,20,17,27,17.90
2015,04,20,17,28,18.00
2015,04,20,17,29,18.00
2015,04,20,17,30,18.10
2015,04,20,17,31,18.10
2015,04,20,17,32,18.10
2015,04,20,17,33,18.10
2015,04,20,17,34,18.10
2015,04,20,17,35,18.10
2015,04,20,17,36,18.10
2015,04,20,17,37,18.10
2015,04,20,17,38,18.20